This is the latest recevied weather packets stored in our database for station/object KN6CW-3. If no packets are shown the sender has not sent any weather packets the latest 10 day(s).
| Time | Temp. | Humidity | Pressure | Rain* | Wind** | Luminosity | Snow |
|---|---|---|---|---|---|---|---|
| 1778111468 | 9.44° C | 96% | 1007.5 hPa | 0 mm | - | 0 W/m² | - |
| 1778111167 | 10° C | 95% | 1007.5 hPa | 0 mm | - | 0 W/m² | - |
| 1778110867 | 10° C | 95% | 1007.4 hPa | 0 mm | - | 0 W/m² | - |
| 1778110566 | 10.56° C | 95% | 1007.5 hPa | 0 mm | - | 0 W/m² | - |
| 1778110266 | 11.11° C | 95% | 1007.3 hPa | 0 mm | - | 0 W/m² | - |
| 1778109966 | 12.22° C | 95% | 1007 hPa | 0 mm | - | 0 W/m² | - |
| 1778109666 | 13.33° C | 96% | 1006.9 hPa | 0 mm | - | 0 W/m² | - |
| 1778109365 | 13.89° C | 97% | 1006.6 hPa | 0 mm | - | 0 W/m² | - |
| 1778109065 | 13.89° C | 98% | 1006.5 hPa | 0 mm | - | 7 W/m² | - |
| 1778108765 | 13.89° C | 98% | 1006.4 hPa | 0 mm | - | 9 W/m² | - |
| 1778108465 | 13.89° C | 98% | 1006.4 hPa | 0 mm | - | 11 W/m² | - |
| 1778108164 | 13.89° C | 98% | 1006.5 hPa | 0 mm | - | 16 W/m² | - |
| 1778107865 | 14.44° C | 98% | 1006.4 hPa | 0 mm | - | 21 W/m² | - |
| 1778107564 | 14.44° C | 98% | 1006.3 hPa | 0 mm | - | 12 W/m² | - |
| 1778107263 | 14.44° C | 98% | 1006.2 hPa | 0 mm | - | 19 W/m² | - |
| 1778106963 | 14.44° C | 99% | 1006.3 hPa | 0 mm | - | 25 W/m² | - |
| 1778106663 | 14.44° C | 99% | 1006.4 hPa | 0 mm | - | 18 W/m² | - |
| 1778106362 | 14.44° C | 98% | 1006.3 hPa | 0 mm | - | 19 W/m² | - |
| 1778106062 | 14.44° C | 99% | 1006.2 hPa | 0 mm | - | 16 W/m² | - |
| 1778105762 | 14.44° C | 99% | 1006.2 hPa | 0 mm | - | 19 W/m² | - |
| 1778105461 | 14.44° C | 99% | 1006 hPa | 0 mm | - | 46 W/m² | - |
| 1778105161 | 14.44° C | 98% | 1005.9 hPa | 0 mm | - | 63 W/m² | - |
| 1778104861 | 14.44° C | 98% | 1005.8 hPa | 0 mm | - | 100 W/m² | - |
| 1778104561 | 14.44° C | 98% | 1005.8 hPa | 0 mm | - | 56 W/m² | - |
| 1778104260 | 14.44° C | 98% | 1005.8 hPa | 0 mm | - | 40 W/m² | - |
* Rain latest hour (hover to see other rain measurements)
** Current wind speed in m/s (hover to see current wind gust speed)